Location: Biltmore Gardens
(41.6070°N, 83.4666°W)
Time: 14:27:14
(UTC+00:00)

Resurs 1-4 Rocket - Pass Details

Date: 14 July 2020
Orbit: 800 x 814 km, 98.6° (Epoch: 04 August)

Event Time Altitude Azimuth Distance (km) Brightness Sun altitude
Rises 06:27:17 0° 22° (NNE) 3,343 6.6 -25.8°
Reaches altitude 10° 06:29:51 10° 32° (NNE) 2,405 5.5 -25.7°
Maximum altitude 06:34:41 34° 97° (E) 1,304 3.2 -25.5°
Enters shadow 06:35:35 32° 118° (ESE) 1,356 3.1 -25.5°
